Time,TemperatureF,DewpointF,PressureIn,WindDirection,WindDirectionDegrees,WindSpeedMPH,WindSpeedGustMPH,Humidity,HourlyPrecipIn,Conditions,Clouds,dailyrainin,SoftwareType,DateUTC
2013-10-15 00:00:00,58.1,55.0,29.78,SSW,196,3.0,-999.0,89,-99.99,,,0.01,weatherlink.com 1.10,2013-10-15 05:00:00,
2013-10-15 00:15:00,56.2,52.0,29.78,West,259,4.0,-999.0,87,-99.99,,,0.02,weatherlink.com 1.10,2013-10-15 05:15:00,
2013-10-15 00:30:00,55.0,52.0,29.79,SW,220,0.0,-999.0,88,-99.99,,,0.02,weatherlink.com 1.10,2013-10-15 05:30:00,
2013-10-15 00:45:00,54.6,52.0,29.79,SSW,196,2.0,-999.0,89,-99.99,,,0.03,weatherlink.com 1.10,2013-10-15 05:45:00,
2013-10-15 01:00:00,54.5,51.0,29.79,South,185,0.0,-999.0,88,-99.99,,,0.04,weatherlink.com 1.10,2013-10-15 06:00:00,
2013-10-15 01:15:00,54.2,51.0,29.79,SSW,194,0.0,-999.0,88,-99.99,,,0.04,weatherlink.com 1.10,2013-10-15 06:15:00,
2013-10-15 01:30:00,53.9,51.0,29.79,South,190,3.0,-999.0,88,-99.99,,,0.05,weatherlink.com 1.10,2013-10-15 06:30:00,
2013-10-15 01:45:00,53.8,50.0,29.80,WSW,238,0.0,-999.0,86,-99.99,,,0.06,weatherlink.com 1.10,2013-10-15 06:45:00,
2013-10-15 02:00:00,53.6,50.0,29.80,WSW,238,6.0,-999.0,86,-99.99,,,0.07,weatherlink.com 1.10,2013-10-15 07:00:00,
2013-10-15 02:15:00,53.5,49.0,29.80,West,259,0.0,-999.0,85,-99.99,,,0.07,weatherlink.com 1.10,2013-10-15 07:15:00,
2013-10-15 02:30:00,53.3,49.0,29.81,SSW,211,0.0,-999.0,84,-99.99,,,0.08,weatherlink.com 1.10,2013-10-15 07:30:00,
2013-10-15 02:45:00,53.0,48.0,29.82,SSW,213,2.0,-999.0,82,-99.99,,,0.08,weatherlink.com 1.10,2013-10-15 07:45:00,
2013-10-15 03:00:00,52.6,47.0,29.82,NW,313,2.0,-999.0,80,-99.99,,,0.09,weatherlink.com 1.10,2013-10-15 08:00:00,
2013-10-15 03:15:00,52.2,46.0,29.83,WSW,254,4.0,-999.0,80,-99.99,,,0.10,weatherlink.com 1.10,2013-10-15 08:15:00,
2013-10-15 03:30:00,51.5,45.0,29.83,NW,312,2.0,-999.0,78,-99.99,,,0.10,weatherlink.com 1.10,2013-10-15 08:30:00,
2013-10-15 03:45:00,50.9,45.0,29.84,West,275,0.0,-999.0,80,-99.99,,,0.11,weatherlink.com 1.10,2013-10-15 08:45:00,
2013-10-15 04:01:00,50.5,44.0,29.84,SW,231,3.0,-999.0,79,-99.99,,,0.11,weatherlink.com 1.10,2013-10-15 09:01:00,
2013-10-15 04:16:00,50.2,44.0,29.84,SW,229,7.0,-999.0,79,-99.99,,,0.12,weatherlink.com 1.10,2013-10-15 09:16:00,
2013-10-15 04:31:00,50.0,44.0,29.84,SSW,198,2.0,-999.0,80,-99.99,,,0.12,weatherlink.com 1.10,2013-10-15 09:31:00,
2013-10-15 04:46:00,49.5,44.0,29.84,WSW,254,0.0,-999.0,80,-99.99,,,0.13,weatherlink.com 1.10,2013-10-15 09:46:00,
2013-10-15 05:01:00,49.1,44.0,29.84,WSW,244,2.0,-999.0,81,-99.99,,,0.13,weatherlink.com 1.10,2013-10-15 10:01:00,
2013-10-15 05:16:00,49.1,44.0,29.85,SW,222,2.0,-999.0,82,-99.99,,,0.14,weatherlink.com 1.10,2013-10-15 10:16:00,
2013-10-15 05:31:00,49.0,43.0,29.86,West,267,0.0,-999.0,81,-99.99,,,0.14,weatherlink.com 1.10,2013-10-15 10:31:00,
2013-10-15 05:46:00,48.7,43.0,29.86,West,260,2.0,-999.0,81,-99.99,,,0.14,weatherlink.com 1.10,2013-10-15 10:46:00,
2013-10-15 06:01:00,48.7,43.0,29.86,SW,235,0.0,-999.0,82,-99.99,,,0.15,weatherlink.com 1.10,2013-10-15 11:01:00,
2013-10-15 06:16:00,48.8,43.0,29.86,NNW,329,3.0,-999.0,79,-99.99,,,0.15,weatherlink.com 1.10,2013-10-15 11:16:00,
2013-10-15 06:31:00,48.2,41.0,29.87,West,274,4.0,-999.0,76,-99.99,,,0.15,weatherlink.com 1.10,2013-10-15 11:31:00,
2013-10-15 06:46:00,47.4,41.0,29.87,WSW,248,0.0,-999.0,77,-99.99,,,0.16,weatherlink.com 1.10,2013-10-15 11:46:00,
2013-10-15 07:01:00,46.7,41.0,29.88,WSW,257,0.0,-999.0,79,-99.99,,,0.16,weatherlink.com 1.10,2013-10-15 12:01:00,
2013-10-15 07:16:00,46.4,41.0,29.88,West,259,2.0,-999.0,80,-99.99,,,0.16,weatherlink.com 1.10,2013-10-15 12:16:00,
2013-10-15 07:31:00,46.3,41.0,29.88,WSW,238,0.0,-999.0,81,-99.99,,,0.17,weatherlink.com 1.10,2013-10-15 12:31:00,
2013-10-15 07:46:00,46.6,41.0,29.88,SSW,208,1.0,-999.0,80,-99.99,,,0.17,weatherlink.com 1.10,2013-10-15 12:46:00,
2013-10-15 08:01:00,46.8,40.0,29.89,West,277,0.0,-999.0,78,-99.99,,,0.17,weatherlink.com 1.10,2013-10-15 13:01:00,
2013-10-15 08:16:00,46.6,40.0,29.90,WSW,250,5.0,-999.0,77,-99.99,,,0.17,weatherlink.com 1.10,2013-10-15 13:16:00,
2013-10-15 08:31:00,46.5,40.0,29.90,West,269,2.0,-999.0,77,-99.99,,,0.18,weatherlink.com 1.10,2013-10-15 13:31:00,
2013-10-15 08:46:00,46.5,40.0,29.91,WSW,253,0.0,-999.0,78,-99.99,,,0.18,weatherlink.com 1.10,2013-10-15 13:46:00,
2013-10-15 09:01:00,46.5,40.0,29.91,SSW,206,0.0,-999.0,77,-99.99,,,0.18,weatherlink.com 1.10,2013-10-15 14:01:00,
2013-10-15 09:16:00,47.4,40.0,29.91,West,259,7.0,-999.0,74,-99.99,,,0.19,weatherlink.com 1.10,2013-10-15 14:16:00,
2013-10-15 09:31:00,47.0,39.0,29.92,West,275,12.0,-999.0,74,-99.99,,,0.19,weatherlink.com 1.10,2013-10-15 14:31:00,
2013-10-15 09:46:00,46.8,39.0,29.93,West,265,10.0,-999.0,75,-99.99,,,0.19,weatherlink.com 1.10,2013-10-15 14:46:00,
2013-10-15 10:01:00,47.6,40.0,29.93,South,173,0.0,-999.0,75,-99.99,,,0.19,weatherlink.com 1.10,2013-10-15 15:01:00,
2013-10-15 10:16:00,48.1,39.0,29.93,SW,230,5.0,-999.0,72,-99.99,,,0.20,weatherlink.com 1.10,2013-10-15 15:16:00,
2013-10-15 10:31:00,48.0,40.0,29.94,SW,236,1.0,-999.0,73,-99.99,,,0.20,weatherlink.com 1.10,2013-10-15 15:31:00,
2013-10-15 10:46:00,48.0,40.0,29.94,SSW,200,3.0,-999.0,74,-99.99,,,0.20,weatherlink.com 1.10,2013-10-15 15:46:00,
2013-10-15 11:01:00,48.6,41.0,29.94,WSW,243,10.0,-999.0,74,-99.99,,,0.21,weatherlink.com 1.10,2013-10-15 16:01:00,
2013-10-15 11:16:00,49.3,41.0,29.94,West,267,0.0,-999.0,73,-99.99,,,0.21,weatherlink.com 1.10,2013-10-15 16:16:00,
2013-10-15 11:31:00,49.4,41.0,29.94,WSW,256,4.0,-999.0,72,-99.99,,,0.21,weatherlink.com 1.10,2013-10-15 16:31:00,
2013-10-15 11:46:00,50.0,42.0,29.95,West,277,0.0,-999.0,74,-99.99,,,0.22,weatherlink.com 1.10,2013-10-15 16:46:00,
2013-10-15 12:02:00,51.0,42.0,29.95,West,259,2.0,-999.0,70,-99.99,,,0.22,weatherlink.com 1.10,2013-10-15 17:02:00,
2013-10-15 12:17:00,50.7,42.0,29.95,WSW,246,1.0,-999.0,71,-99.99,,,0.22,weatherlink.com 1.10,2013-10-15 17:17:00,
2013-10-15 12:32:00,51.2,42.0,29.96,West,267,6.0,-999.0,70,-99.99,,,0.22,weatherlink.com 1.10,2013-10-15 17:32:00,
2013-10-15 12:47:00,51.3,42.0,29.95,NW,311,4.0,-999.0,70,-99.99,,,0.23,weatherlink.com 1.10,2013-10-15 17:47:00,
2013-10-15 13:02:00,51.8,42.0,29.95,West,265,3.0,-999.0,70,-99.99,,,0.23,weatherlink.com 1.10,2013-10-15 18:02:00,
2013-10-15 13:17:00,51.3,42.0,29.96,SSW,206,0.0,-999.0,70,-99.99,,,0.23,weatherlink.com 1.10,2013-10-15 18:17:00,
2013-10-15 13:32:00,51.3,42.0,29.95,WSW,250,2.0,-999.0,71,-99.99,,,0.24,weatherlink.com 1.10,2013-10-15 18:32:00,
2013-10-15 13:47:00,51.4,42.0,29.95,SW,216,4.0,-999.0,70,-99.99,,,0.24,weatherlink.com 1.10,2013-10-15 18:47:00,
2013-10-15 14:02:00,50.8,42.0,29.96,West,273,5.0,-999.0,71,-99.99,,,0.24,weatherlink.com 1.10,2013-10-15 19:02:00,
2013-10-15 14:17:00,50.5,41.0,29.96,West,273,4.0,-999.0,71,-99.99,,,0.25,weatherlink.com 1.10,2013-10-15 19:17:00,
2013-10-15 14:32:00,50.1,41.0,29.96,West,279,9.0,-999.0,72,-99.99,,,0.25,weatherlink.com 1.10,2013-10-15 19:32:00,
2013-10-15 14:47:00,50.2,42.0,29.96,West,263,4.0,-999.0,73,-99.99,,,0.25,weatherlink.com 1.10,2013-10-15 19:47:00,
2013-10-15 15:02:00,50.1,42.0,29.96,SW,232,3.0,-999.0,74,-99.99,,,0.26,weatherlink.com 1.10,2013-10-15 20:02:00,
2013-10-15 15:17:00,49.9,42.0,29.96,West,271,3.0,-999.0,73,-99.99,,,0.26,weatherlink.com 1.10,2013-10-15 20:17:00,
2013-10-15 15:32:00,49.7,42.0,29.96,WSW,244,5.0,-999.0,74,-99.99,,,0.26,weatherlink.com 1.10,2013-10-15 20:32:00,
2013-10-15 15:47:00,49.6,42.0,29.97,SW,221,2.0,-999.0,75,-99.99,,,0.26,weatherlink.com 1.10,2013-10-15 20:47:00,
2013-10-15 16:02:00,49.5,42.0,29.97,WSW,240,1.0,-999.0,75,-99.99,,,0.26,weatherlink.com 1.10,2013-10-15 21:02:00,
2013-10-15 16:17:00,49.5,42.0,29.97,WSW,254,0.0,-999.0,75,-99.99,,,0.27,weatherlink.com 1.10,2013-10-15 21:17:00,
2013-10-15 16:32:00,49.9,42.0,29.97,WSW,254,7.0,-999.0,75,-99.99,,,0.27,weatherlink.com 1.10,2013-10-15 21:32:00,
2013-10-15 16:47:00,49.8,42.0,29.97,WNW,302,0.0,-999.0,75,-99.99,,,0.27,weatherlink.com 1.10,2013-10-15 21:47:00,
2013-10-15 17:02:00,49.7,41.0,29.98,West,271,0.0,-999.0,73,-99.99,,,0.27,weatherlink.com 1.10,2013-10-15 22:02:00,
2013-10-15 17:17:00,49.5,42.0,29.97,West,271,4.0,-999.0,74,-99.99,,,0.28,weatherlink.com 1.10,2013-10-15 22:17:00,
2013-10-15 17:32:00,49.2,42.0,29.98,WSW,257,4.0,-999.0,75,-99.99,,,0.28,weatherlink.com 1.10,2013-10-15 22:32:00,
2013-10-15 17:47:00,49.1,42.0,29.98,North,350,2.0,-999.0,76,-99.99,,,0.28,weatherlink.com 1.10,2013-10-15 22:47:00,
2013-10-15 18:02:00,48.9,42.0,29.98,NW,322,5.0,-999.0,76,-99.99,,,0.28,weatherlink.com 1.10,2013-10-15 23:02:00,
2013-10-15 18:17:00,48.6,42.0,29.98,WSW,257,1.0,-999.0,77,-99.99,,,0.28,weatherlink.com 1.10,2013-10-15 23:17:00,
2013-10-15 18:32:00,48.5,42.0,29.99,West,269,4.0,-999.0,78,-99.99,,,0.28,weatherlink.com 1.10,2013-10-15 23:32:00,
2013-10-15 18:47:00,48.1,42.0,30.00,WSW,252,2.0,-999.0,80,-99.99,,,0.28,weatherlink.com 1.10,2013-10-15 23:47:00,
2013-10-15 19:02:00,47.8,42.0,30.00,West,263,0.0,-999.0,80,-99.99,,,0.29,weatherlink.com 1.10,2013-10-16 00:02:00,
2013-10-15 19:17:00,47.7,42.0,30.01,WNW,300,2.0,-999.0,80,-99.99,,,0.29,weatherlink.com 1.10,2013-10-16 00:17:00,
2013-10-15 19:32:00,47.6,42.0,30.02,WNW,302,1.0,-999.0,80,-99.99,,,0.29,weatherlink.com 1.10,2013-10-16 00:32:00,
2013-10-15 19:47:00,47.5,42.0,30.02,NW,316,0.0,-999.0,81,-99.99,,,0.29,weatherlink.com 1.10,2013-10-16 00:47:00,
2013-10-15 20:02:00,47.4,42.0,30.03,WSW,240,0.0,-999.0,80,-99.99,,,0.29,weatherlink.com 1.10,2013-10-16 01:02:00,
2013-10-15 20:17:00,47.5,41.0,30.03,West,266,2.0,-999.0,79,-99.99,,,0.29,weatherlink.com 1.10,2013-10-16 01:17:00,
2013-10-15 20:32:00,47.6,41.0,30.04,NW,309,4.0,-999.0,79,-99.99,,,0.29,weatherlink.com 1.10,2013-10-16 01:32:00,
2013-10-15 20:46:00,47.6,41.0,30.04,WNW,296,2.0,-999.0,78,-99.99,,,0.30,weatherlink.com 1.10,2013-10-16 01:46:00,
2013-10-15 21:02:00,47.5,41.0,30.04,NW,311,4.0,-999.0,79,-99.99,,,0.30,weatherlink.com 1.10,2013-10-16 02:02:00,
2013-10-15 21:17:00,47.2,41.0,30.04,North,349,8.0,-999.0,79,-99.99,,,0.30,weatherlink.com 1.10,2013-10-16 02:17:00,
2013-10-15 21:32:00,47.0,41.0,30.05,WSW,244,2.0,-999.0,80,-99.99,,,0.30,weatherlink.com 1.10,2013-10-16 02:32:00,
2013-10-15 21:47:00,46.7,42.0,30.05,West,261,1.0,-999.0,83,-99.99,,,0.30,weatherlink.com 1.10,2013-10-16 02:47:00,
2013-10-15 22:02:00,46.6,41.0,30.04,WNW,299,2.0,-999.0,82,-99.99,,,0.30,weatherlink.com 1.10,2013-10-16 03:02:00,
2013-10-15 22:17:00,46.6,41.0,30.05,NW,309,7.0,-999.0,82,-99.99,,,0.30,weatherlink.com 1.10,2013-10-16 03:17:00,
2013-10-15 22:32:00,46.7,42.0,30.05,West,272,0.0,-999.0,82,-99.99,,,0.30,weatherlink.com 1.10,2013-10-16 03:32:00,
2013-10-15 22:47:00,46.7,41.0,30.05,WNW,296,0.0,-999.0,81,-99.99,,,0.30,weatherlink.com 1.10,2013-10-16 03:47:00,
2013-10-15 23:02:00,46.7,41.0,30.05,WSW,257,1.0,-999.0,81,-99.99,,,0.30,weatherlink.com 1.10,2013-10-16 04:02:00,
2013-10-15 23:17:00,46.7,42.0,30.05,WNW,302,2.0,-999.0,82,-99.99,,,0.30,weatherlink.com 1.10,2013-10-16 04:17:00,
2013-10-15 23:32:00,46.6,41.0,30.06,NW,304,0.0,-999.0,82,-99.99,,,0.31,weatherlink.com 1.10,2013-10-16 04:32:00,
2013-10-15 23:47:00,46.6,41.0,30.06,West,266,1.0,-999.0,82,-99.99,,,0.31,weatherlink.com 1.10,2013-10-16 04:47:00,